Terminal Aerodrome Forecast
Issued by NWS Jackson, KY

Home | Current Version | Previous Version | Text Only | Print | Product List | Glossary On
Versions: 1 2 3 4 5 6 7 8 9 10 11 12 13 14 15 16 17 18
000
FTUS43 KJKL 011349 AAA
TAFJKL
TAF AMD
KJKL 011349Z 0114/0212 VRB03KT 6SM BR VCSH OVC003
     FM011500 VRB03KT 6SM BR BKN015
     FM011600 VRB04KT P6SM SCT030
     FM011800 VRB04KT P6SM VCTS BKN040CB
     FM020900 VRB03KT 3SM BR SCT002=

USA.gov is the U.S. government's official web portal to all federal, state and local government web resources and services.